Wind_Speed
4 3 3 3 3 2 1 2 3 4 5 6 7 6 7 8 9 9 7 6 6 6 6 6 6 7 7 7 6 6 5 5 5 5 5 6 6 6 6 7 7 7 7 8 8 8 7 7 7
5 4 4 4 4 3 2 3 3 4 5 5 6 6 7 9 9 10 8 7 6 6 6 6 7 7 7 6 6 6 5 5 5 5 6 6 6 6 6 7 7 7 7 8 8 9 8 8 8
6 5 5 5 4 4 3 3 3 4 6 6 6 7 7 9 10 10 8 7 7 7 7 7 7 7 6 6 5 5 5 5 5 5 6 6 7 7 7 7 8 8 8 8 9 9 10 9 9
7 7 7 6 4 4 4 3 3 4 5 6 6 7 8 9 9 8 8 8 7 7 8 7 7 6 6 6 5 5 6 6 6 6 6 7 7 8 8 9 8 8 9 9 10 10 10 10 10
8 8 8 7 6 5 6 5 4 5 5 6 7 7 8 8 8 8 8 8 7 7 7 7 7 6 5 5 6 6 6 6 6 6 7 8 8 8 9 9 9 9 9 10 10 10 10 10 11
9 9 9 8 7 7 7 7 6 6 5 6 7 7 8 8 8 8 7 8 8 7 7 7 7 6 5 5 6 6 6 6 6 7 7 8 9 9 9 10 10 10 10 10 11 11 11 11 11
10 11 11 10 9 9 9 8 7 7 7 7 7 8 8 9 9 8 7 8 8 7 7 7 7 7 5 6 6 6 7 7 7 7 8 8 9 10 10 10 10 10 11 12 11 11 10 11 11
12 12 11 11 10 10 10 9 8 8 7 8 8 8 8 9 9 8 7 7 7 7 7 7 8 7 7 6 6 7 7 8 8 9 9 9 10 11 10 10 10 10 11 12 11 11 11 11 11
13 13 12 11 11 11 11 10 9 9 9 9 9 9 9 9 9 9 8 8 7 7 8 8 8 8 7 7 8 8 8 9 9 10 10 11 11 11 10 11 11 11 12 12 12 12 11 11 11
14 14 13 13 12 12 12 12 11 11 11 10 9 10 10 9 9 9 9 8 8 8 8 7 7 8 8 9 9 9 9 9 9 10 10 11 11 12 11 11 11 12 12 13 13 13 13 12 11
14 14 14 14 14 13 13 13 13 13 12 11 11 11 11 10 10 10 10 10 9 8 8 8 8 9 9 10 10 10 10 10 9 10 11 11 12 12 12 11 11 12 13 13 13 13 14 13 12
15 15 15 15 15 14 13 14 14 14 13 14 13 12 12 11 11 11 11 11 10 9 9 9 9 9 10 10 10 11 10 10 10 11 11 12 12 12 12 12 11 12 12 13 14 14 14 13 13
16 16 16 16 16 15 14 15 16 16 15 16 14 12 12 12 12 12 12 12 11 10 10 10 10 10 11 11 11 11 11 11 11 11 11 12 12 12 12 13 11 11 12 12 13 13 12 12 13
17 17 17 17 16 16 16 16 17 17 16 16 16 13 12 11 12 12 12 12 13 12 11 11 11 11 11 11 11 11 11 11 11 11 11 12 12 12 12 12 12 12 12 11 12 12 11 12 13
18 18 18 18 17 17 17 17 18 18 17 17 17 15 13 13 13 12 12 13 13 13 12 12 12 11 11 11 11 12 11 11 11 12 12 12 12 12 11 11 12 12 12 13 13 13 12 13 13
20 19 18 18 19 19 19 18 18 18 17 17 17 17 15 14 14 13 13 13 14 13 13 12 12 12 12 11 12 12 11 11 12 13 13 13 13 12 12 11 11 12 12 13 13 13 13 13 14
21 20 20 19 20 20 20 19 19 18 18 19 18 17 15 15 15 15 14 14 14 14 13 12 12 13 12 12 12 11 12 12 13 13 13 12 13 12 12 11 12 12 12 12 13 13 14 14 15
21 22 21 21 21 21 20 20 19 19 19 20 19 18 16 16 16 16 15 15 14 14 13 12 13 12 12 12 11 11 12 12 12 13 13 13 13 13 12 12 13 13 12 12 13 13 14 15 15
22 22 22 22 23 23 21 21 20 20 20 21 20 18 16 16 16 15 15 15 14 13 12 12 12 11 11 10 10 10 11 12 13 14 14 14 13 13 12 13 13 13 13 13 13 13 14 15 16
23 23 23 23 24 24 23 22 22 21 20 20 20 19 17 16 16 16 16 15 14 14 13 13 12 11 11 12 11 10 11 12 13 14 15 14 13 13 14 14 14 14 13 13 14 15 15 15 16
22 22 22 23 23 23 23 22 22 21 21 21 20 19 18 17 17 16 15 14 14 14 13 13 13 13 13 13 12 12 12 13 15 15 15 14 14 14 14 14 15 15 15 14 15 16 16 16 16
22 22 23 23 23 23 23 23 21 22 21 21 20 19 18 17 16 15 14 13 13 13 13 13 13 13 14 14 13 13 13 14 15 15 15 14 14 14 15 14 15 15 15 15 16 17 17 18 18
22 21 22 23 24 24 24 25 22 22 21 20 19 18 18 16 15 15 15 14 14 13 13 13 13 12 13 13 13 13 14 15 15 15 14 15 14 15 14 15 15 15 16 16 17 18 18 19 19
21 21 22 23 24 25 23 25 23 22 21 19 19 19 18 18 16 16 15 15 14 14 13 12 13 13 13 12 12 13 14 15 15 15 15 15 15 15 15 15 15 16 16 17 17 18 18 19 19
21 21 22 24 24 24 22 24 23 22 20 19 19 20 20 19 18 17 17 16 15 15 13 13 13 12 13 13 13 14 14 15 15 15 15 15 15 15 16 16 16 16 17 17 18 18 18 18 18
20 21 21 24 24 23 23 25 23 21 20 19 18 19 19 19 18 18 18 17 16 15 14 13 14 14 14 13 13 13 14 14 14 15 15 15 15 15 15 16 16 17 17 17 18 18 18 18 18
21 21 22 24 24 24 24 24 23 20 19 19 19 19 19 19 18 19 19 18 17 15 15 15 15 14 15 14 13 13 14 15 15 15 15 15 15 15 15 16 16 17 18 18 18 18 19 19 19
22 22 22 24 25 26 25 24 22 20 19 19 19 19 19 19 19 19 19 18 18 17 16 16 16 15 15 15 15 14 14 15 15 15 15 16 15 15 15 16 16 17 18 19 19 19 19 19 19
24 24 24 24 25 26 26 23 21 20 19 19 20 19 19 19 20 19 19 19 18 17 16 16 16 16 16 15 15 15 14 15 15 15 16 16 15 15 15 16 17 18 19 20 20 19 18 18 18
24 24 24 25 25 24 25 23 21 21 20 20 19 19 20 20 21 20 19 19 19 19 18 17 17 17 17 16 16 15 15 16 16 16 16 16 16 16 16 17 18 19 19 20 19 18 18 18 17
Wind_Direction
227 223 222 220 223 232 248 308 321 325 327 335 340 345 346 342 340 336 329 326 330 331 331 332 333 337 338 339 344 343 342 340 335 333 327 323 320 313 309 302 302 294 289 284 271 267 263 260 257
231 228 229 233 232 244 263 294 311 321 328 340 342 344 344 340 340 331 323 318 325 329 327 326 329 333 335 336 342 343 338 333 327 320 321 320 317 309 306 304 301 298 291 284 278 271 266 263 259
232 231 233 239 240 244 259 282 304 321 329 337 343 340 340 339 337 331 325 324 325 322 319 320 326 327 330 333 337 339 338 331 325 318 314 312 315 310 305 303 300 299 293 290 289 283 273 266 259
233 232 234 236 240 250 260 277 294 313 320 333 340 342 342 339 337 334 329 326 318 315 312 314 325 327 326 331 334 332 330 327 324 318 313 310 309 310 308 303 301 298 291 290 288 284 277 267 259
238 236 235 235 236 244 256 269 296 310 320 336 342 346 348 344 338 332 329 327 322 316 313 314 321 322 324 321 326 324 320 317 320 322 316 312 310 308 307 302 296 294 292 290 287 283 278 270 263
239 240 238 236 237 248 257 269 286 310 318 327 338 342 347 345 340 333 330 327 324 318 314 316 321 322 324 319 322 317 318 315 316 317 317 314 310 305 302 303 297 293 291 291 288 284 279 272 264
244 245 243 239 239 249 257 269 284 302 313 320 329 341 343 344 340 333 326 326 325 319 317 319 322 325 321 318 322 320 316 314 315 315 313 313 309 304 300 298 296 295 292 289 287 282 278 271 263
246 249 242 242 241 245 257 268 281 297 312 316 322 330 335 337 338 332 326 325 321 319 321 321 322 324 327 325 323 318 314 315 314 313 307 306 306 305 301 300 296 292 290 287 285 282 277 271 263
246 246 244 245 242 246 256 266 277 292 302 311 317 322 324 326 331 330 324 321 318 317 320 321 319 321 321 322 324 319 314 313 312 309 304 301 300 300 298 298 295 289 287 286 284 280 270 266 262
243 247 247 245 243 248 257 267 276 285 292 299 307 315 319 322 323 323 319 317 314 315 315 314 314 317 319 318 321 319 313 311 309 307 304 299 298 298 297 297 292 287 286 284 282 277 266 264 258
246 248 246 243 245 248 255 264 273 281 284 288 295 306 316 315 316 317 317 315 311 312 310 310 308 310 314 312 311 311 308 307 306 305 305 301 298 298 296 293 289 286 283 281 278 275 272 265 265
245 247 246 246 248 250 254 262 269 278 281 284 291 299 308 308 307 307 309 308 306 307 306 304 302 302 306 306 304 306 303 302 303 304 303 300 298 298 297 294 291 285 281 279 277 273 271 271 265
246 246 247 248 251 252 254 259 265 273 277 282 286 293 296 297 301 302 302 302 301 301 300 299 296 296 298 300 300 302 300 300 300 301 301 300 298 298 298 295 294 289 285 282 278 274 268 267 264
248 247 247 249 251 252 251 255 263 268 272 276 280 285 286 284 290 296 300 302 299 297 296 296 296 295 296 298 300 301 298 299 302 301 303 302 300 298 298 294 292 289 287 284 278 272 268 264 262
250 249 248 249 248 250 253 255 259 264 269 272 275 280 281 281 283 290 295 298 293 292 293 294 294 294 295 296 298 298 296 298 299 300 301 301 300 297 296 292 290 290 285 282 277 270 267 265 264
252 252 250 248 248 250 253 254 257 263 267 271 275 277 276 277 277 283 288 290 289 287 289 291 292 293 292 292 296 295 294 296 297 298 298 297 297 296 295 291 291 290 285 279 275 271 268 266 264
252 252 250 247 248 250 252 255 258 262 266 270 273 274 275 276 274 278 281 284 284 282 284 284 287 290 291 294 296 291 290 291 294 297 297 295 295 295 293 291 295 294 289 284 277 274 272 269 265
252 251 250 248 249 252 253 255 257 260 265 269 272 273 274 275 274 276 277 280 279 279 282 285 285 289 294 295 295 291 285 290 293 295 294 294 294 296 297 297 295 293 290 286 282 278 276 273 268
253 253 253 252 253 254 254 253 256 258 263 268 269 270 272 272 271 274 276 277 278 280 280 283 284 285 288 288 291 288 284 285 292 294 295 295 293 293 299 301 297 292 286 284 282 280 280 278 273
254 254 253 254 256 257 255 254 257 259 261 264 265 265 267 268 270 275 277 275 277 278 276 277 279 283 285 284 284 287 288 291 296 296 294 293 295 293 289 294 295 291 284 283 282 281 280 278 276
254 255 254 256 258 258 257 256 256 256 258 261 263 263 262 265 268 274 277 275 275 274 272 275 276 278 282 281 283 286 289 293 294 291 292 292 292 291 290 292 293 290 284 281 281 282 280 277 277
254 254 253 257 259 257 257 259 255 256 257 258 259 262 264 265 266 269 273 273 272 272 270 273 275 279 281 280 280 283 286 290 291 290 291 294 296 294 290 287 288 288 284 281 283 283 282 279 276
254 253 256 258 260 258 257 260 258 256 256 256 260 260 263 264 266 268 272 274 272 272 271 273 278 280 280 279 277 283 285 285 287 290 292 290 291 293 289 288 285 285 282 281 283 283 282 280 278
252 253 256 258 259 258 258 261 259 257 257 256 259 259 259 259 261 265 269 271 271 272 273 275 280 280 282 285 282 284 284 283 283 285 289 288 287 288 288 287 284 286 285 282 287 287 285 282 280
251 253 256 258 257 260 260 260 261 260 259 259 258 258 258 256 257 261 265 268 269 270 273 276 279 281 284 287 287 286 283 284 286 286 287 288 289 290 288 287 287 287 286 284 289 291 287 282 277
251 254 258 264 262 262 259 261 263 262 261 261 257 255 257 256 256 260 262 264 267 268 272 276 279 283 286 290 290 289 290 290 291 290 290 292 291 288 286 288 288 288 288 288 289 289 286 282 277
253 255 258 263 263 264 264 265 265 264 261 261 259 259 259 255 256 260 262 264 265 266 271 274 278 281 285 289 291 291 290 291 292 292 294 295 293 291 290 290 291 291 290 290 290 288 286 283 281
255 258 259 261 263 266 268 268 267 264 264 263 262 262 257 256 259 260 261 260 262 266 270 272 276 279 283 283 285 290 291 293 291 293 295 297 297 294 296 294 293 294 293 290 290 288 284 282 280
255 256 259 261 262 267 269 268 269 269 266 264 262 263 260 257 261 260 258 258 262 265 269 272 272 275 279 281 284 287 291 295 296 294 295 295 296 298 297 298 297 295 294 291 289 286 285 282 280
256 256 258 261 262 264 268 268 267 267 265 263 262 263 262 262 262 261 258 259 262 265 267 270 272 274 275 276 279 283 289 292 294 295 296 297 297 296 297 297 298 297 293 290 288 285 283 282 281
Height
5881 5881 5882 5883 5884 5884 5883 5883 5883 5882 5882 5882 5881 5881 5881 5881 5882 5883 5880 5879 5878 5878 5878 5877 5877 5876 5875 5875 5874 5874 5873 5873 5873 5873 5873 5873 5873 5873 5873 5874 5874 5873 5874 5875 5875 5876 5877 5877 5878
5880 5881 5882 5883 5883 5883 5884 5883 5883 5882 5882 5882 5881 5881 5881 5880 5880 5879 5879 5878 5878 5878 5877 5877 5876 5875 5875 5874 5873 5873 5873 5873 5872 5872 5872 5872 5872 5872 5872 5873 5873 5872 5873 5873 5874 5874 5875 5876 5877
5880 5881 5882 5883 5882 5883 5883 5882 5882 5882 5882 5881 5881 5881 5880 5880 5879 5878 5878 5878 5877 5877 5876 5876 5875 5874 5874 5873 5873 5872 5872 5872 5872 5872 5871 5871 5871 5871 5871 5871 5872 5872 5872 5872 5873 5873 5874 5874 5875
5879 5880 5881 5882 5882 5882 5881 5881 5881 5881 5882 5881 5881 5880 5880 5879 5878 5878 5877 5877 5877 5876 5876 5875 5874 5873 5873 5872 5872 5871 5871 5871 5871 5871 5870 5870 5870 5870 5870 5870 5870 5870 5870 5870 5871 5871 5872 5873 5873
5878 5879 5880 5881 5881 5881 5880 5880 5881 5881 5881 5881 5881 5880 5879 5879 5878 5877 5877 5876 5876 5875 5875 5874 5873 5872 5872 5871 5871 5871 5870 5870 5870 5869 5869 5869 5869 5868 5868 5869 5869 5869 5869 5869 5869 5869 5870 5871 5871
5877 5878 5879 5879 5880 5879 5879 5879 5880 5880 5880 5880 5880 5879 5878 5878 5877 5876 5876 5875 5875 5874 5874 5873 5872 5871 5871 5871 5870 5870 5869 5869 5868 5868 5868 5868 5867 5867 5867 5867 5867 5867 5867 5867 5867 5867 5868 5868 5869
5876 5876 5877 5878 5879 5878 5878 5878 5879 5879 5879 5879 5879 5879 5878 5877 5877 5876 5875 5874 5874 5873 5873 5872 5871 5870 5870 5869 5869 5869 5868 5868 5867 5867 5867 5866 5866 5865 5865 5865 5865 5865 5865 5865 5865 5865 5865 5866 5867
5874 5875 5876 5877 5877 5877 5877 5877 5878 5878 5878 5878 5878 5878 5877 5876 5875 5875 5874 5873 5873 5872 5872 5871 5870 5869 5869 5868 5868 5867 5867 5867 5866 5865 5865 5864 5864 5863 5863 5863 5862 5862 5862 5863 5863 5863 5863 5864 5865
5872 5874 5874 5875 5875 5875 5875 5875 5876 5877 5877 5877 5877 5877 5876 5875 5874 5874 5873 5873 5872 5871 5870 5870 5869 5869 5868 5867 5867 5866 5865 5865 5864 5864 5863 5862 5862 5861 5861 5860 5860 5860 5860 5860 5860 5861 5861 5861 5862
5869 5871 5872 5872 5873 5873 5873 5874 5874 5875 5875 5875 5876 5875 5875 5874 5873 5872 5872 5871 5870 5870 5869 5868 5868 5867 5867 5866 5865 5865 5864 5863 5862 5862 5861 5860 5860 5859 5858 5858 5858 5857 5857 5857 5858 5858 5858 5859 5860
5866 5868 5869 5869 5870 5871 5871 5872 5872 5873 5874 5874 5874 5874 5873 5872 5872 5871 5870 5869 5869 5868 5868 5867 5866 5866 5865 5865 5864 5863 5862 5861 5860 5860 5859 5858 5857 5857 5856 5855 5855 5855 5855 5854 5855 5855 5855 5856 5857
5864 5865 5866 5866 5867 5868 5869 5870 5870 5871 5872 5872 5872 5871 5871 5871 5870 5869 5868 5868 5867 5866 5866 5865 5865 5864 5864 5863 5862 5861 5860 5859 5858 5858 5857 5856 5855 5854 5854 5853 5852 5852 5851 5851 5851 5852 5853 5853 5854
5860 5861 5862 5863 5864 5865 5867 5867 5868 5869 5869 5869 5869 5869 5869 5869 5868 5867 5867 5866 5865 5864 5864 5863 5863 5862 5861 5860 5860 5859 5858 5857 5856 5855 5854 5853 5853 5852 5851 5850 5850 5849 5848 5848 5848 5849 5849 5850 5851
5856 5858 5859 5860 5861 5862 5863 5864 5865 5866 5866 5866 5866 5867 5867 5866 5865 5865 5865 5864 5863 5862 5861 5861 5860 5859 5859 5858 5857 5856 5856 5855 5854 5853 5852 5851 5850 5849 5848 5847 5847 5846 5845 5845 5845 5845 5846 5847 5848
5853 5855 5856 5857 5858 5859 5861 5862 5862 5863 5863 5863 5864 5864 5864 5863 5863 5862 5862 5862 5861 5860 5859 5858 5857 5857 5856 5855 5855 5854 5853 5852 5851 5850 5849 5848 5847 5846 5845 5844 5844 5843 5842 5842 5842 5842 5843 5844 5844
5849 5851 5853 5854 5855 5856 5858 5859 5860 5859 5859 5860 5860 5861 5860 5860 5859 5859 5859 5859 5858 5857 5856 5855 5854 5854 5853 5853 5852 5851 5850 5850 5849 5847 5846 5845 5844 5843 5842 5841 5841 5840 5839 5839 5839 5839 5839 5840 5841
5845 5847 5849 5851 5851 5852 5853 5854 5856 5855 5856 5856 5856 5857 5857 5856 5856 5856 5856 5855 5855 5854 5853 5852 5851 5851 5850 5849 5849 5848 5848 5847 5846 5845 5843 5842 5841 5840 5839 5839 5838 5837 5836 5836 5836 5836 5836 5836 5837
5842 5843 5844 5846 5847 5847 5848 5850 5851 5851 5851 5852 5852 5853 5853 5853 5853 5852 5852 5851 5850 5850 5849 5849 5849 5848 5847 5846 5846 5845 5844 5843 5842 5841 5840 5839 5838 5837 5836 5835 5835 5834 5833 5833 5832 5832 5832 5832 5833
5837 5838 5840 5841 5842 5842 5844 5845 5846 5847 5847 5847 5848 5848 5849 5849 5848 5848 5848 5847 5847 5846 5845 5845 5845 5845 5844 5843 5842 5841 5840 5840 5839 5838 5837 5836 5835 5834 5833 5832 5831 5830 5830 5829 5829 5829 5829 5828 5828
5833 5834 5835 5836 5837 5837 5838 5840 5841 5842 5843 5843 5843 5844 5845 5845 5845 5845 5844 5844 5843 5842 5842 5842 5842 5841 5841 5840 5839 5838 5838 5837 5836 5835 5833 5832 5831 5830 5829 5829 5828 5827 5826 5825 5825 5825 5825 5824 5824
5829 5830 5831 5831 5832 5832 5833 5835 5837 5838 5838 5839 5839 5840 5840 5841 5841 5841 5840 5840 5839 5839 5838 5838 5838 5838 5838 5837 5836 5835 5835 5834 5833 5831 5830 5829 5828 5827 5826 5825 5824 5823 5822 5822 5821 5821 5820 5820 5819
5825 5826 5826 5826 5826 5827 5829 5829 5832 5833 5834 5835 5836 5836 5836 5837 5837 5837 5837 5836 5836 5835 5835 5835 5835 5835 5834 5833 5833 5832 5832 5831 5829 5828 5826 5825 5824 5823 5822 5821 5820 5819 5818 5818 5817 5816 5816 5815 5814
5820 5821 5821 5821 5821 5822 5824 5824 5827 5828 5829 5831 5832 5832 5832 5833 5833 5833 5833 5833 5832 5832 5831 5831 5831 5831 5830 5830 5829 5828 5828 5827 5826 5824 5823 5822 5820 5819 5818 5817 5816 5815 5814 5813 5812 5812 5811 5810 5809
5815 5816 5816 5816 5817 5818 5819 5820 5821 5823 5825 5826 5827 5827 5828 5828 5829 5829 5829 5829 5829 5828 5828 5828 5827 5827 5827 5826 5826 5825 5824 5823 5822 5820 5819 5818 5816 5815 5814 5812 5811 5810 5809 5809 5808 5806 5805 5805 5804
5811 5812 5812 5812 5812 5813 5815 5814 5817 5819 5820 5821 5822 5822 5823 5824 5825 5825 5826 5826 5826 5825 5825 5824 5824 5823 5823 5823 5822 5821 5820 5819 5818 5816 5815 5814 5812 5811 5810 5808 5807 5806 5805 5804 5803 5801 5801 5800 5799
5807 5808 5809 5808 5808 5809 5810 5809 5813 5814 5815 5816 5817 5817 5818 5819 5820 5821 5821 5822 5822 5821 5821 5820 5820 5820 5819 5819 5818 5817 5816 5815 5814 5812 5811 5809 5808 5806 5805 5804 5803 5801 5800 5799 5797 5796 5795 5794 5794
5802 5803 5804 5804 5803 5803 5804 5805 5807 5809 5810 5811 5812 5812 5813 5814 5815 5816 5817 5817 5817 5817 5817 5817 5816 5816 5815 5815 5814 5813 5812 5811 5810 5808 5807 5805 5803 5802 5801 5799 5798 5796 5795 5794 5792 5791 5790 5789 5789
5798 5799 5799 5798 5798 5798 5799 5800 5803 5804 5805 5806 5807 5808 5809 5809 5811 5811 5812 5812 5813 5813 5812 5812 5812 5812 5811 5811 5810 5809 5808 5807 5806 5804 5803 5801 5799 5798 5797 5795 5794 5792 5791 5789 5787 5786 5785 5784 5783
5793 5793 5793 5793 5794 5794 5794 5798 5799 5799 5800 5801 5802 5803 5804 5805 5806 5806 5807 5808 5808 5808 5808 5808 5808 5807 5807 5807 5806 5806 5805 5804 5802 5800 5799 5798 5796 5794 5793 5791 5789 5787 5786 5784 5782 5780 5779 5778 5778
5787 5788 5788 5789 5789 5789 5790 5794 5794 5795 5795 5796 5797 5798 5798 5799 5800 5801 5801 5802 5803 5803 5803 5803 5803 5803 5803 5802 5802 5801 5801 5799 5798 5796 5795 5793 5792 5790 5789 5787 5784 5782 5780 5778 5776 5775 5774 5773 5773